WXM80 ListenWXM80 Stop

You find our weather info also at:

UK Metoffice

WeatherCloud

Weather Underground

Northeastern Weather Network

AWEKAS

Citizen Weather Observer Program (CWOP)

HAMweather, WeatherForYou, PWS Weather


Weather Underground History page Text

Daily Summary for July 29, 2017 Units:  English    Metric   Both
« Previous Day
Next Day »
Daily Weekly Monthly Yearly Custom
  High: Low: Average:
Temperature: 73.5 °F 67.3 °F 70.1 °F
Dew Point: 70.6 °F 58.1 °F 60.9 °F
Humidity: 91 % 67 % 73 %
Wind Speed: 9.8 mph 0.6 mph 4.9 mph
Wind Gust: 17.3 mph - -
Wind:- - ENE
Pressure: 29.84 in 29.72 in -
Precipitation: 0.00 in    
Historical Graphs
 
 
Tabular Data for July 29, 2017
Time Temperature Dew Point Pressure Wind Wind Speed Wind Gust Humidity Rainfall Rate (Hourly)
00:04 73.4 °F 70.3 °F 29.74 in West 1.0 mph 3.0 mph 90 % 0.00 in
00:09 73.4 °F 70.6 °F 29.74 in North 0.6 mph 3.5 mph 91 % 0.00 in
00:14 73.3 °F 70.5 °F 29.74 in North 4.3 mph 6.9 mph 91 % 0.00 in
00:15 73.3 °F 70.2 °F 29.74 in NE 2.9 mph 5.8 mph 90 % 0.00 in
00:20 73.0 °F 69.6 °F 29.74 in NE 3.8 mph 8.1 mph 89 % 0.00 in
00:25 72.9 °F 68.8 °F 29.74 in NNE 4.6 mph 6.9 mph 87 % 0.00 in
00:30 72.9 °F 68.5 °F 29.74 in NE 2.5 mph 4.6 mph 86 % 0.00 in
00:35 72.8 °F 68.0 °F 29.74 in East 3.0 mph 6.9 mph 85 % 0.00 in
00:43 72.9 °F 67.4 °F 29.74 in NE 4.1 mph 7.0 mph 83 % 0.00 in
00:48 72.8 °F 67.0 °F 29.74 in NE 2.8 mph 8.1 mph 82 % 0.00 in
00:53 72.8 °F 66.3 °F 29.74 in ENE 3.3 mph 3.5 mph 80 % 0.00 in
00:58 72.8 °F 66.3 °F 29.74 in ENE 5.0 mph 9.0 mph 80 % 0.00 in
01:04 72.9 °F 66.0 °F 29.73 in NE 3.9 mph 5.0 mph 79 % 0.00 in
01:09 72.9 °F 66.0 °F 29.74 in NE 6.0 mph 10.4 mph 79 % 0.00 in
01:14 72.9 °F 65.6 °F 29.74 in NE 3.4 mph 8.0 mph 78 % 0.00 in
01:19 72.9 °F 65.6 °F 29.74 in ENE 4.1 mph 6.0 mph 78 % 0.00 in
01:24 72.8 °F 64.8 °F 29.74 in ENE 4.8 mph 8.1 mph 76 % 0.00 in
01:25 72.8 °F 64.8 °F 29.73 in NE 3.8 mph 8.1 mph 76 % 0.00 in
01:35 72.8 °F 64.8 °F 29.74 in NE 2.5 mph 6.9 mph 76 % 0.00 in
01:40 72.8 °F 64.4 °F 29.74 in ENE 5.0 mph 8.1 mph 75 % 0.00 in
01:45 72.7 °F 64.7 °F 29.74 in East 3.6 mph 8.0 mph 76 % 0.00 in
01:50 72.6 °F 63.4 °F 29.74 in ENE 5.3 mph 8.1 mph 73 % 0.00 in
01:55 72.6 °F 63.1 °F 29.74 in NE 4.8 mph 9.2 mph 72 % 0.00 in
02:00 72.6 °F 63.4 °F 29.74 in NE 3.0 mph 4.6 mph 73 % 0.00 in
02:05 72.6 °F 63.8 °F 29.73 in NE 3.1 mph 8.1 mph 74 % 0.00 in
02:10 72.5 °F 63.4 °F 29.73 in NE 4.1 mph 8.1 mph 73 % 0.00 in
02:15 72.5 °F 64.1 °F 29.73 in NE 4.9 mph 7.0 mph 75 % 0.00 in
02:20 72.4 °F 63.6 °F 29.73 in ENE 3.0 mph 6.9 mph 74 % 0.00 in
02:30 72.3 °F 63.2 °F 29.74 in ENE 3.2 mph 8.1 mph 73 % 0.00 in
02:35 72.3 °F 63.5 °F 29.73 in NE 4.6 mph 9.2 mph 74 % 0.00 in
02:40 72.2 °F 63.1 °F 29.73 in ENE 4.4 mph 10.0 mph 73 % 0.00 in
02:41 72.2 °F 63.1 °F 29.73 in NE 5.0 mph 12.0 mph 73 % 0.00 in
02:46 72.1 °F 63.0 °F 29.73 in ENE 6.0 mph 13.0 mph 73 % 0.00 in
02:51 72.0 °F 63.3 °F 29.73 in ENE 5.0 mph 13.0 mph 74 % 0.00 in
02:56 71.9 °F 63.2 °F 29.73 in ENE 5.0 mph 8.0 mph 74 % 0.00 in
03:01 71.9 °F 63.2 °F 29.72 in NE 4.4 mph 6.9 mph 74 % 0.00 in
03:06 71.8 °F 63.1 °F 29.72 in ENE 4.0 mph 8.1 mph 74 % 0.00 in
03:11 71.8 °F 62.3 °F 29.73 in ENE 6.2 mph 11.5 mph 72 % 0.00 in
03:16 71.7 °F 62.6 °F 29.73 in ENE 5.2 mph 10.4 mph 73 % 0.00 in
03:21 71.7 °F 61.4 °F 29.73 in ENE 7.3 mph 13.8 mph 70 % 0.00 in
03:26 71.6 °F 61.3 °F 29.73 in ENE 8.4 mph 14.0 mph 70 % 0.00 in
03:31 71.5 °F 60.8 °F 29.73 in ENE 8.0 mph 11.5 mph 69 % 0.00 in
03:36 71.5 °F 60.8 °F 29.73 in NE 7.9 mph 10.4 mph 69 % 0.00 in
03:41 71.4 °F 60.7 °F 29.73 in ENE 7.4 mph 13.8 mph 69 % 0.00 in
03:46 71.3 °F 60.6 °F 29.73 in ENE 6.6 mph 15.0 mph 69 % 0.00 in
03:51 71.3 °F 60.2 °F 29.73 in ENE 9.8 mph 17.3 mph 68 % 0.00 in
03:56 71.2 °F 59.7 °F 29.73 in NE 6.7 mph 17.3 mph 67 % 0.00 in
04:01 71.1 °F 60.4 °F 29.73 in East 7.3 mph 13.8 mph 69 % 0.00 in
04:07 71.1 °F 60.4 °F 29.73 in ENE 5.4 mph 11.5 mph 69 % 0.00 in
04:12 71.0 °F 59.5 °F 29.73 in East 8.3 mph 11.5 mph 67 % 0.00 in
04:17 70.9 °F 59.8 °F 29.73 in NE 6.2 mph 10.4 mph 68 % 0.00 in
04:22 70.9 °F 60.2 °F 29.73 in ENE 5.9 mph 8.1 mph 69 % 0.00 in
04:27 70.8 °F 59.7 °F 29.73 in NE 5.5 mph 9.2 mph 68 % 0.00 in
04:32 70.8 °F 60.1 °F 29.74 in ENE 5.9 mph 11.5 mph 69 % 0.00 in
04:37 70.7 °F 59.6 °F 29.74 in ENE 7.7 mph 13.8 mph 68 % 0.00 in
04:42 70.6 °F 59.5 °F 29.74 in ENE 6.5 mph 11.5 mph 68 % 0.00 in
04:47 70.5 °F 60.2 °F 29.74 in East 5.7 mph 8.1 mph 70 % 0.00 in
04:48 70.5 °F 60.2 °F 29.74 in NNE 4.6 mph 8.1 mph 70 % 0.00 in
04:53 70.4 °F 59.3 °F 29.74 in NE 5.2 mph 9.2 mph 68 % 0.00 in
04:58 70.3 °F 59.2 °F 29.74 in ENE 6.2 mph 11.5 mph 68 % 0.00 in
05:03 70.2 °F 59.1 °F 29.74 in NE 6.7 mph 10.4 mph 68 % 0.00 in
05:08 70.2 °F 59.6 °F 29.73 in ENE 4.8 mph 8.1 mph 69 % 0.00 in
05:13 70.1 °F 59.5 °F 29.74 in ENE 5.7 mph 9.2 mph 69 % 0.00 in
05:18 70.1 °F 59.5 °F 29.73 in NNE 4.8 mph 6.9 mph 69 % 0.00 in
05:23 70.1 °F 58.6 °F 29.73 in NE 6.2 mph 12.7 mph 67 % 0.00 in
05:28 70.0 °F 59.0 °F 29.74 in ENE 6.1 mph 11.5 mph 68 % 0.00 in
05:33 70.0 °F 59.0 °F 29.74 in NE 4.0 mph 9.2 mph 68 % 0.00 in
05:38 69.9 °F 58.9 °F 29.74 in East 6.1 mph 10.4 mph 68 % 0.00 in
05:43 69.8 °F 59.2 °F 29.74 in NE 6.8 mph 16.1 mph 69 % 0.00 in
05:48 69.7 °F 58.3 °F 29.74 in ENE 4.5 mph 12.7 mph 67 % 0.00 in
05:53 69.7 °F 59.5 °F 29.74 in ENE 6.2 mph 11.5 mph 70 % 0.00 in
05:59 69.6 °F 58.6 °F 29.74 in ENE 6.8 mph 9.2 mph 68 % 0.00 in
06:04 69.5 °F 58.9 °F 29.74 in ENE 5.3 mph 15.0 mph 69 % 0.00 in
06:09 69.4 °F 58.4 °F 29.74 in ENE 5.7 mph 10.4 mph 68 % 0.00 in
06:14 69.4 °F 58.8 °F 29.74 in ENE 6.3 mph 9.2 mph 69 % 0.00 in
06:19 69.3 °F 58.7 °F 29.74 in North 6.4 mph 9.2 mph 69 % 0.00 in
06:21 69.3 °F 59.5 °F 29.74 in ENE 4.0 mph 6.9 mph 71 % 0.00 in
06:26 69.2 °F 59.0 °F 29.74 in ENE 7.3 mph 11.5 mph 70 % 0.00 in
06:31 69.1 °F 59.7 °F 29.74 in ENE 4.7 mph 8.1 mph 72 % 0.00 in
06:36 69.1 °F 59.7 °F 29.74 in ENE 6.5 mph 11.5 mph 72 % 0.00 in
06:41 69.0 °F 59.2 °F 29.75 in ENE 5.8 mph 13.8 mph 71 % 0.00 in
06:47 68.9 °F 59.5 °F 29.74 in NE 6.6 mph 12.0 mph 72 % 0.00 in
06:52 68.8 °F 59.0 °F 29.74 in ENE 8.5 mph 12.0 mph 71 % 0.00 in
06:57 68.8 °F 59.8 °F 29.74 in East 7.7 mph 15.0 mph 73 % 0.00 in
07:02 68.7 °F 59.3 °F 29.74 in East 7.1 mph 10.4 mph 72 % 0.00 in
07:07 68.6 °F 59.2 °F 29.74 in ENE 8.2 mph 12.7 mph 72 % 0.00 in
07:12 68.6 °F 59.6 °F 29.74 in NE 5.8 mph 9.2 mph 73 % 0.00 in
07:17 68.5 °F 59.9 °F 29.74 in ENE 5.6 mph 9.2 mph 74 % 0.00 in
07:22 68.4 °F 59.4 °F 29.75 in East 9.1 mph 17.0 mph 73 % 0.00 in
07:27 68.3 °F 58.9 °F 29.75 in ENE 8.4 mph 14.0 mph 72 % 0.00 in
07:32 68.3 °F 59.7 °F 29.76 in ENE 8.2 mph 14.0 mph 74 % 0.00 in
07:37 68.2 °F 60.0 °F 29.76 in East 6.2 mph 10.4 mph 75 % 0.00 in
07:42 68.2 °F 59.6 °F 29.76 in ENE 6.0 mph 12.7 mph 74 % 0.00 in
07:47 68.1 °F 59.1 °F 29.76 in ENE 7.9 mph 15.0 mph 73 % 0.00 in
07:52 68.0 °F 59.4 °F 29.76 in ENE 6.6 mph 13.8 mph 74 % 0.00 in
07:57 68.0 °F 59.4 °F 29.76 in NE 7.3 mph 9.2 mph 74 % 0.00 in
08:02 67.9 °F 58.9 °F 29.76 in ENE 9.7 mph 11.5 mph 73 % 0.00 in
08:07 67.9 °F 58.9 °F 29.76 in ENE 9.8 mph 16.0 mph 73 % 0.00 in
08:12 67.8 °F 58.8 °F 29.76 in NE 7.7 mph 15.0 mph 73 % 0.00 in
08:15 67.7 °F 58.7 °F 29.76 in ENE 7.3 mph 15.0 mph 73 % 0.00 in
08:20 67.7 °F 58.7 °F 29.76 in ENE 6.2 mph 12.7 mph 73 % 0.00 in
08:25 67.7 °F 58.7 °F 29.76 in East 8.4 mph 15.0 mph 73 % 0.00 in
08:30 67.6 °F 58.6 °F 29.76 in ENE 6.5 mph 11.5 mph 73 % 0.00 in
08:35 67.6 °F 58.6 °F 29.76 in ENE 7.0 mph 11.5 mph 73 % 0.00 in
08:36 67.6 °F 58.6 °F 29.76 in ENE 6.9 mph 11.5 mph 73 % 0.00 in
08:41 67.6 °F 59.0 °F 29.76 in ENE 6.1 mph 12.7 mph 74 % 0.00 in
08:46 67.6 °F 59.0 °F 29.75 in ENE 4.0 mph 8.1 mph 74 % 0.00 in
08:52 67.6 °F 58.6 °F 29.75 in ENE 6.5 mph 13.8 mph 73 % 0.00 in
08:57 67.5 °F 58.5 °F 29.75 in ENE 7.9 mph 11.5 mph 73 % 0.00 in
09:02 67.5 °F 58.9 °F 29.75 in ENE 5.8 mph 10.0 mph 74 % 0.00 in
09:07 67.5 °F 58.5 °F 29.75 in ENE 8.2 mph 15.0 mph 73 % 0.00 in
09:12 67.5 °F 58.2 °F 29.75 in East 7.7 mph 10.4 mph 72 % 0.00 in
09:17 67.5 °F 58.9 °F 29.75 in ENE 4.6 mph 9.2 mph 74 % 0.00 in
09:22 67.4 °F 58.4 °F 29.75 in NE 5.4 mph 11.5 mph 73 % 0.00 in
09:27 67.4 °F 58.4 °F 29.75 in ENE 5.6 mph 9.2 mph 73 % 0.00 in
09:32 67.3 °F 58.7 °F 29.75 in East 6.1 mph 11.5 mph 74 % 0.00 in
09:37 67.3 °F 58.3 °F 29.75 in North 7.4 mph 11.5 mph 73 % 0.00 in
09:42 67.3 °F 58.3 °F 29.75 in ENE 8.4 mph 15.0 mph 73 % 0.00 in
09:47 67.3 °F 58.3 °F 29.75 in ENE 7.2 mph 17.3 mph 73 % 0.00 in
09:52 67.3 °F 58.7 °F 29.75 in NE 6.1 mph 15.0 mph 74 % 0.00 in
09:57 67.4 °F 58.4 °F 29.75 in ENE 7.6 mph 12.7 mph 73 % 0.00 in
10:02 67.4 °F 58.8 °F 29.75 in NNE 5.9 mph 9.2 mph 74 % 0.00 in
10:07 67.4 °F 58.4 °F 29.75 in ENE 6.5 mph 11.5 mph 73 % 0.00 in
10:12 67.4 °F 58.1 °F 29.75 in East 6.7 mph 15.0 mph 72 % 0.00 in
10:17 67.5 °F 58.5 °F 29.75 in ENE 7.4 mph 16.1 mph 73 % 0.00 in
10:22 67.4 °F 58.8 °F 29.76 in ENE 8.0 mph 11.5 mph 74 % 0.00 in
10:27 67.4 °F 58.4 °F 29.76 in NE 5.0 mph 9.2 mph 73 % 0.00 in
10:32 67.4 °F 58.4 °F 29.77 in NE 6.0 mph 9.0 mph 73 % 0.00 in
10:37 67.5 °F 58.5 °F 29.76 in NE 5.5 mph 10.4 mph 73 % 0.00 in
10:42 67.5 °F 58.9 °F 29.76 in East 3.6 mph 5.0 mph 74 % 0.00 in
10:47 67.5 °F 58.5 °F 29.76 in East 7.9 mph 12.7 mph 73 % 0.00 in
10:52 67.5 °F 58.2 °F 29.76 in ENE 6.5 mph 12.7 mph 72 % 0.00 in
10:57 67.6 °F 59.0 °F 29.76 in ENE 4.3 mph 10.4 mph 74 % 0.00 in
11:02 67.7 °F 59.1 °F 29.77 in NE 3.9 mph 9.2 mph 74 % 0.00 in
11:07 67.8 °F 58.8 °F 29.77 in NNE 3.7 mph 10.4 mph 73 % 0.00 in
11:12 67.8 °F 58.8 °F 29.77 in ENE 5.7 mph 8.1 mph 73 % 0.00 in
11:17 67.8 °F 58.4 °F 29.77 in ENE 3.4 mph 10.4 mph 72 % 0.00 in
11:22 67.8 °F 58.4 °F 29.78 in NE 6.2 mph 11.5 mph 72 % 0.00 in
11:27 67.8 °F 58.4 °F 29.78 in NNE 4.8 mph 9.2 mph 72 % 0.00 in
11:32 67.7 °F 58.3 °F 29.77 in ENE 5.2 mph 11.5 mph 72 % 0.00 in
11:38 67.8 °F 58.8 °F 29.77 in NE 3.9 mph 16.1 mph 73 % 0.00 in
11:43 67.8 °F 59.2 °F 29.77 in NNE 5.2 mph 9.2 mph 74 % 0.00 in
11:48 67.9 °F 59.3 °F 29.77 in ENE 2.1 mph 5.8 mph 74 % 0.00 in
11:53 68.0 °F 59.4 °F 29.77 in East 3.4 mph 9.2 mph 74 % 0.00 in
11:58 68.0 °F 59.4 °F 29.76 in ENE 4.6 mph 9.2 mph 74 % 0.00 in
12:03 68.0 °F 59.0 °F 29.76 in NE 5.2 mph 6.9 mph 73 % 0.00 in
12:08 68.1 °F 59.1 °F 29.75 in ENE 4.8 mph 8.1 mph 73 % 0.00 in
12:13 68.2 °F 58.8 °F 29.76 in NE 4.2 mph 9.2 mph 72 % 0.00 in
12:23 68.4 °F 59.0 °F 29.75 in NE 3.3 mph 11.5 mph 72 % 0.00 in
12:28 68.5 °F 59.5 °F 29.75 in NE 6.4 mph 11.5 mph 73 % 0.00 in
12:33 68.6 °F 59.2 °F 29.75 in ENE 4.2 mph 10.4 mph 72 % 0.00 in
12:38 68.7 °F 59.3 °F 29.75 in NNE 6.6 mph 11.5 mph 72 % 0.00 in
12:43 68.8 °F 59.4 °F 29.75 in NE 3.8 mph 6.9 mph 72 % 0.00 in
12:48 68.9 °F 59.5 °F 29.75 in ENE 8.2 mph 11.5 mph 72 % 0.00 in
12:58 69.1 °F 60.1 °F 29.76 in East 5.7 mph 12.0 mph 73 % 0.00 in
13:03 69.2 °F 59.8 °F 29.76 in North 5.6 mph 9.2 mph 72 % 0.00 in
13:08 69.3 °F 59.9 °F 29.76 in NE 5.3 mph 8.1 mph 72 % 0.00 in
13:13 69.4 °F 59.6 °F 29.77 in NE 5.8 mph 12.0 mph 71 % 0.00 in
13:18 69.4 °F 60.4 °F 29.77 in ENE 5.1 mph 9.2 mph 73 % 0.00 in
13:23 69.4 °F 59.6 °F 29.77 in ENE 4.3 mph 8.1 mph 71 % 0.00 in
13:28 69.5 °F 59.7 °F 29.77 in ESE 4.5 mph 10.4 mph 71 % 0.00 in
13:33 69.5 °F 60.1 °F 29.77 in NE 4.0 mph 6.9 mph 72 % 0.00 in
13:38 69.5 °F 59.7 °F 29.76 in NE 4.7 mph 6.9 mph 71 % 0.00 in
13:43 69.6 °F 60.2 °F 29.77 in NE 7.8 mph 10.4 mph 72 % 0.00 in
13:48 69.6 °F 59.8 °F 29.77 in NE 5.1 mph 8.1 mph 71 % 0.00 in
13:53 69.6 °F 60.6 °F 29.77 in NE 2.6 mph 10.4 mph 73 % 0.00 in
13:55 69.6 °F 60.2 °F 29.76 in NE 5.6 mph 9.2 mph 72 % 0.00 in
14:00 69.6 °F 60.2 °F 29.77 in NE 4.2 mph 8.1 mph 72 % 0.00 in
14:05 69.7 °F 60.7 °F 29.76 in ENE 3.3 mph 8.1 mph 73 % 0.00 in
14:10 69.8 °F 60.8 °F 29.76 in North 4.7 mph 9.2 mph 73 % 0.00 in
14:15 69.9 °F 60.5 °F 29.76 in NNE 5.3 mph 8.1 mph 72 % 0.00 in
14:20 69.9 °F 60.5 °F 29.76 in ENE 5.4 mph 9.2 mph 72 % 0.00 in
14:25 69.9 °F 60.5 °F 29.76 in NE 7.0 mph 11.5 mph 72 % 0.00 in
14:30 69.9 °F 60.5 °F 29.76 in NE 5.0 mph 9.2 mph 72 % 0.00 in
14:35 70.1 °F 60.3 °F 29.76 in NE 4.1 mph 6.9 mph 71 % 0.00 in
14:40 70.2 °F 60.7 °F 29.76 in NE 3.8 mph 6.9 mph 72 % 0.00 in
14:45 70.2 °F 60.7 °F 29.76 in NE 6.0 mph 9.2 mph 72 % 0.00 in
14:50 70.1 °F 60.7 °F 29.76 in NNE 6.7 mph 11.5 mph 72 % 0.00 in
14:55 70.2 °F 60.7 °F 29.76 in NE 8.6 mph 11.5 mph 72 % 0.00 in
15:00 70.2 °F 61.1 °F 29.76 in NE 4.7 mph 11.5 mph 73 % 0.00 in
15:05 70.2 °F 61.1 °F 29.75 in NNE 5.4 mph 9.0 mph 73 % 0.00 in
15:10 70.2 °F 60.7 °F 29.76 in ENE 4.0 mph 8.0 mph 72 % 0.00 in
15:15 70.2 °F 60.7 °F 29.76 in ENE 4.4 mph 13.8 mph 72 % 0.00 in
15:20 70.2 °F 61.9 °F 29.76 in NNE 4.3 mph 7.0 mph 75 % 0.00 in
15:25 70.1 °F 61.8 °F 29.75 in NE 8.8 mph 15.0 mph 75 % 0.00 in
15:35 70.0 °F 60.9 °F 29.76 in NE 5.3 mph 11.5 mph 73 % 0.00 in
15:40 70.0 °F 61.7 °F 29.76 in ENE 6.0 mph 9.2 mph 75 % 0.00 in
15:46 69.9 °F 62.0 °F 29.76 in ENE 3.0 mph 12.0 mph 76 % 0.00 in
15:51 69.9 °F 62.3 °F 29.76 in ENE 3.0 mph 7.0 mph 77 % 0.00 in
15:56 69.8 °F 62.3 °F 29.76 in ENE 3.0 mph 8.0 mph 77 % 0.00 in
16:01 69.8 °F 63.0 °F 29.76 in NNE 2.4 mph 8.0 mph 79 % 0.00 in
16:06 69.8 °F 61.9 °F 29.76 in North 5.7 mph 11.0 mph 76 % 0.00 in
16:11 70.0 °F 62.1 °F 29.76 in NE 4.2 mph 8.0 mph 76 % 0.00 in
16:16 70.2 °F 61.9 °F 29.76 in NNE 4.9 mph 9.2 mph 75 % 0.00 in
16:21 70.4 °F 61.7 °F 29.76 in North 4.5 mph 11.0 mph 74 % 0.00 in
16:26 70.6 °F 62.3 °F 29.76 in North 4.0 mph 8.1 mph 75 % 0.00 in
16:31 70.7 °F 61.6 °F 29.77 in NNE 4.7 mph 9.2 mph 73 % 0.00 in
16:36 70.9 °F 61.8 °F 29.76 in NE 4.4 mph 10.4 mph 73 % 0.00 in
16:41 71.1 °F 61.6 °F 29.77 in NE 7.3 mph 9.2 mph 72 % 0.00 in
16:47 71.3 °F 61.8 °F 29.76 in ENE 3.6 mph 8.1 mph 72 % 0.00 in
16:52 71.4 °F 61.9 °F 29.76 in NE 3.7 mph 5.8 mph 72 % 0.00 in
16:57 71.6 °F 62.1 °F 29.76 in NE 4.1 mph 5.0 mph 72 % 0.00 in
17:02 71.8 °F 61.9 °F 29.76 in ENE 4.3 mph 6.9 mph 71 % 0.00 in
17:07 71.9 °F 62.4 °F 29.77 in NE 3.4 mph 4.6 mph 72 % 0.00 in
17:12 72.1 °F 62.6 °F 29.77 in NE 3.8 mph 6.9 mph 72 % 0.00 in
17:17 72.2 °F 63.1 °F 29.77 in NNE 2.2 mph 4.6 mph 73 % 0.00 in
17:22 72.2 °F 62.7 °F 29.77 in ENE 4.0 mph 4.0 mph 72 % 0.00 in
17:27 72.3 °F 63.2 °F 29.77 in NE 2.5 mph 6.9 mph 73 % 0.00 in
17:32 72.3 °F 63.2 °F 29.77 in NE 2.9 mph 6.9 mph 73 % 0.00 in
17:37 72.2 °F 62.7 °F 29.77 in ENE 3.6 mph 5.0 mph 72 % 0.00 in
17:42 72.2 °F 62.7 °F 29.77 in ENE 3.2 mph 5.8 mph 72 % 0.00 in
17:47 72.2 °F 63.1 °F 29.77 in ENE 3.4 mph 6.9 mph 73 % 0.00 in
17:52 72.2 °F 63.1 °F 29.77 in NE 3.1 mph 7.0 mph 73 % 0.00 in
17:57 72.2 °F 63.4 °F 29.77 in NE 3.7 mph 8.1 mph 74 % 0.00 in
18:02 72.1 °F 63.0 °F 29.77 in East 4.9 mph 9.2 mph 73 % 0.00 in
18:07 72.1 °F 62.6 °F 29.77 in NE 4.4 mph 8.1 mph 72 % 0.00 in
18:12 72.2 °F 62.7 °F 29.77 in NNE 2.8 mph 3.5 mph 72 % 0.00 in
18:17 72.2 °F 63.1 °F 29.77 in ENE 2.9 mph 6.9 mph 73 % 0.00 in
18:22 72.3 °F 63.5 °F 29.77 in ENE 3.0 mph 9.2 mph 74 % 0.00 in
18:27 72.5 °F 63.7 °F 29.77 in NNE 3.1 mph 6.0 mph 74 % 0.00 in
18:32 72.6 °F 63.4 °F 29.78 in NE 3.7 mph 7.0 mph 73 % 0.00 in
18:37 72.7 °F 62.8 °F 29.78 in NE 2.4 mph 6.9 mph 71 % 0.00 in
18:42 72.9 °F 62.9 °F 29.77 in NE 4.5 mph 8.1 mph 71 % 0.00 in
18:47 73.0 °F 62.6 °F 29.78 in NE 2.8 mph 9.2 mph 70 % 0.00 in
18:52 73.2 °F 62.8 °F 29.78 in ENE 4.1 mph 10.4 mph 70 % 0.00 in
18:57 73.4 °F 63.8 °F 29.78 in NE 3.5 mph 5.0 mph 72 % 0.00 in
19:02 73.5 °F 63.9 °F 29.78 in NNE 3.9 mph 7.0 mph 72 % 0.00 in
19:07 73.5 °F 62.7 °F 29.78 in NE 4.0 mph 6.9 mph 69 % 0.00 in
19:12 73.5 °F 62.7 °F 29.78 in NNE 3.4 mph 6.9 mph 69 % 0.00 in
19:22 73.5 °F 63.1 °F 29.79 in NE 2.6 mph 6.9 mph 70 % 0.00 in
19:27 73.4 °F 63.4 °F 29.79 in NNE 3.7 mph 5.8 mph 71 % 0.00 in
19:37 73.0 °F 63.0 °F 29.79 in NE 3.0 mph 6.9 mph 71 % 0.00 in
19:42 72.8 °F 62.8 °F 29.79 in NNE 2.7 mph 4.6 mph 71 % 0.00 in
19:47 72.6 °F 63.1 °F 29.79 in NNE 1.9 mph 5.8 mph 72 % 0.00 in
19:52 72.5 °F 63.0 °F 29.79 in ENE 2.4 mph 4.6 mph 72 % 0.00 in
19:58 72.2 °F 62.3 °F 29.79 in ENE 3.2 mph 4.0 mph 71 % 0.00 in
20:03 72.0 °F 62.5 °F 29.80 in NE 3.4 mph 6.9 mph 72 % 0.00 in
20:08 71.8 °F 62.3 °F 29.79 in East 4.3 mph 6.9 mph 72 % 0.00 in
20:13 71.7 °F 62.2 °F 29.80 in NE 2.5 mph 3.5 mph 72 % 0.00 in
20:18 71.6 °F 62.1 °F 29.80 in NE 2.9 mph 5.8 mph 72 % 0.00 in
20:23 71.4 °F 62.3 °F 29.80 in NE 1.6 mph 3.5 mph 73 % 0.00 in
20:28 71.3 °F 61.8 °F 29.81 in NE 2.2 mph 3.5 mph 72 % 0.00 in
20:33 71.1 °F 61.6 °F 29.81 in ENE 3.2 mph 4.0 mph 72 % 0.00 in
20:38 71.0 °F 61.1 °F 29.81 in NE 4.8 mph 8.1 mph 71 % 0.00 in
20:43 70.8 °F 60.5 °F 29.81 in ENE 3.7 mph 8.1 mph 70 % 0.00 in
20:48 70.7 °F 60.8 °F 29.81 in ENE 2.9 mph 6.9 mph 71 % 0.00 in
20:54 70.6 °F 60.7 °F 29.81 in ENE 4.6 mph 8.1 mph 71 % 0.00 in
20:56 70.6 °F 60.3 °F 29.81 in ENE 5.0 mph 9.0 mph 70 % 0.00 in
21:01 70.5 °F 60.2 °F 29.81 in ENE 3.4 mph 8.1 mph 70 % 0.00 in
21:06 70.4 °F 59.7 °F 29.81 in ENE 2.9 mph 4.6 mph 69 % 0.00 in
21:11 70.3 °F 60.4 °F 29.82 in ENE 3.7 mph 6.9 mph 71 % 0.00 in
21:16 70.2 °F 60.7 °F 29.82 in NE 3.0 mph 6.9 mph 72 % 0.00 in
21:21 70.1 °F 60.7 °F 29.82 in ENE 2.6 mph 4.6 mph 72 % 0.00 in
21:26 70.0 °F 60.9 °F 29.82 in NE 2.1 mph 3.5 mph 73 % 0.00 in
21:31 69.9 °F 60.5 °F 29.82 in ENE 2.7 mph 6.0 mph 72 % 0.00 in
21:36 69.8 °F 60.4 °F 29.82 in NE 2.1 mph 6.9 mph 72 % 0.00 in
21:41 69.6 °F 59.8 °F 29.82 in ENE 3.2 mph 8.1 mph 71 % 0.00 in
21:46 69.5 °F 58.9 °F 29.82 in ENE 3.0 mph 8.1 mph 69 % 0.00 in
21:51 69.4 °F 58.8 °F 29.83 in NE 3.7 mph 8.1 mph 69 % 0.00 in
21:56 69.4 °F 59.2 °F 29.83 in NE 3.0 mph 4.0 mph 70 % 0.00 in
22:01 69.3 °F 59.1 °F 29.83 in ENE 4.2 mph 8.1 mph 70 % 0.00 in
22:06 69.3 °F 59.1 °F 29.83 in ENE 3.0 mph 6.9 mph 70 % 0.00 in
22:11 69.2 °F 59.8 °F 29.83 in NE 2.5 mph 4.6 mph 72 % 0.00 in
22:16 69.1 °F 59.7 °F 29.83 in ENE 4.0 mph 6.9 mph 72 % 0.00 in
22:21 69.0 °F 59.2 °F 29.82 in NNE 1.6 mph 4.6 mph 71 % 0.00 in
22:26 69.0 °F 59.2 °F 29.83 in NE 3.4 mph 4.6 mph 71 % 0.00 in
22:31 68.9 °F 59.5 °F 29.83 in NE 1.2 mph 2.3 mph 72 % 0.00 in
22:37 68.9 °F 59.9 °F 29.83 in ENE 2.7 mph 3.5 mph 73 % 0.00 in
22:42 68.7 °F 59.3 °F 29.83 in NE 3.2 mph 8.1 mph 72 % 0.00 in
22:47 68.7 °F 59.7 °F 29.83 in East 3.7 mph 9.2 mph 73 % 0.00 in
22:52 68.5 °F 59.5 °F 29.83 in NE 1.7 mph 3.5 mph 73 % 0.00 in
22:57 68.5 °F 59.5 °F 29.84 in NE 2.7 mph 5.8 mph 73 % 0.00 in
23:02 68.3 °F 59.3 °F 29.84 in NE 3.7 mph 9.2 mph 73 % 0.00 in
23:07 68.3 °F 58.5 °F 29.84 in ENE 1.8 mph 4.0 mph 71 % 0.00 in
23:12 68.2 °F 59.2 °F 29.84 in NE 3.4 mph 5.0 mph 73 % 0.00 in
23:17 68.1 °F 59.1 °F 29.84 in ENE 2.8 mph 5.0 mph 73 % 0.00 in
23:22 68.0 °F 59.4 °F 29.84 in NE 4.2 mph 6.9 mph 74 % 0.00 in
23:27 67.9 °F 58.9 °F 29.84 in NE 4.6 mph 9.2 mph 73 % 0.00 in
23:32 67.8 °F 58.8 °F 29.84 in NNW 5.7 mph 9.2 mph 73 % 0.00 in
23:37 67.8 °F 59.2 °F 29.84 in North 6.0 mph 8.1 mph 74 % 0.00 in
23:42 67.7 °F 59.1 °F 29.84 in North 4.4 mph 8.1 mph 74 % 0.00 in
23:47 67.7 °F 59.1 °F 29.84 in NNE 4.8 mph 8.1 mph 74 % 0.00 in
23:52 67.6 °F 59.0 °F 29.84 in NNE 5.7 mph 8.1 mph 74 % 0.00 in
23:57 67.5 °F 59.3 °F 29.84 in North 4.0 mph 7.0 mph 75 % 0.00 in
Crab Meadow Weather
Compliments of Weather Underground - 3 mb

Script developed by  Jim McMurry - jmcmurry@mwt.net Adapted for the template by  Wim van der Kuil - Leuven-Template.eu

Astronomy: The Sun is around 4.5 billion years old.